FW5359 Weather Reports


time (UTC)temp
F
wind
direction
speed
knots
gust
knots
rain 1hr
in
rain 24hr
in
rain mn
in
humidity
%
barometer
mb
20260508011207 66 34 0.9 3.5 0.00 0.00 0.00 68 1014.8
20260508010703 66 30 0.9 4.3 0.00 0.00 0.00 69 1014.9
20260508010203 66 30 1.7 4.3 0.00 0.00 0.00 69 1014.7
20260508005702 66 28 2.6 7.0 0.00 0.00 0.00 70 1014.5
20260508005203 66 37 2.6 7.0 0.00 0.00 0.00 69 1014.3
20260508004203 67 116 1.7 6.1 0.00 0.00 0.00 69 1013.2
20260508003703 67 115 1.7 6.1 0.00 0.00 0.00 68 1013.1
20260508001657 67 86 2.6 7.0 0.00 0.00 0.00 68 1013.2
20260508001428 67 84 2.6 7.0 0.00 0.00 0.00 67 1013.9
20260508000926 67 90 2.6 6.1 0.00 0.00 0.00 67 1014.2
20260508000154 67 77 2.6 6.1 0.00 0.00 0.00 67 1014.4
20260507235655 67 74 2.6 7.8 0.00 0.00 0.00 66 1014.6
20260507235425 68 91 2.6 7.8 0.00 0.00 0.00 66 1014.7
20260507234652 68 78 1.7 7.8 0.00 0.00 0.00 66 1014.6
20260507234426 68 98 1.7 5.2 0.00 0.00 0.00 67 1015.2
20260507233651 68 84 1.7 5.2 0.00 0.00 0.00 67 1015.4
20260507233421 68 88 1.7 7.0 0.00 0.00 0.00 66 1015.7
20260507232648 68 61 2.6 8.7 0.00 0.00 0.00 66 1015.8
20260507232148 68 67 2.6 8.7 0.00 0.00 0.00 66 1015.9
20260507231649 69 75 2.6 8.7 0.00 0.00 0.00 66 1015.8
20260507231149 69 65 2.6 7.0 0.00 0.00 0.00 66 1015.7
20260507230647 69 53 2.6 8.7 0.00 0.00 0.00 66 1015.8
20260507230149 69 44 2.6 8.7 0.00 0.00 0.00 66 1015.8
20260507225641 69 69 2.6 6.1 0.00 0.00 0.00 67 1015.9
20260507225135 69 75 1.7 7.0 0.00 0.00 0.00 67 1016.0
20260507224629 69 25 1.7 7.0 0.00 0.00 0.00 66 1016.2
20260507224353 69 57 1.7 6.1 0.00 0.00 0.00 67 1016.1
20260507223617 69 58 2.6 6.1 0.00 0.00 0.00 66 1016.2
20260507223111 69 71 2.6 7.0 0.00 0.00 0.00 65 1016.2
20260507222605 69 82 2.6 7.0 0.00 0.00 0.00 67 1016.3
20260507222058 69 85 2.6 7.0 0.00 0.00 0.00 67 1016.4
20260507221552 69 60 2.6 7.8 0.00 0.00 0.00 65 1016.5
20260507220813 69 88 3.5 9.6 0.00 0.00 0.00 66 1016.4
20260507220034 69 80 3.5 9.6 0.00 0.00 0.00 66 1016.3
20260507215528 68 96 3.5 7.8 0.00 0.00 0.00 67 1016.2
20260507215023 68 57 3.5 10.4 0.00 0.00 0.00 67 1016.2
20260507214517 68 69 3.5 10.4 0.00 0.00 0.00 67 1016.3
20260507214011 68 43 3.5 9.6 0.00 0.00 0.00 69 1016.4
20260507213735 68 88 2.6 8.7 0.00 0.00 0.00 69 1016.6
20260507213230 68 87 2.6 7.0 0.00 0.00 0.00 69 1016.5
20260507212452 68 103 2.6 7.0 0.00 0.00 0.00 69 1016.7
20260507212217 68 82 3.5 9.6 0.00 0.00 0.00 69 1016.7
20260507211711 68 65 2.6 9.6 0.00 0.00 0.00 70 1016.7
20260507210935 67 65 3.5 9.6 0.00 0.00 0.00 70 1016.7
20260507210429 67 56 3.5 9.6 0.00 0.00 0.00 70 1017.2
20260507205923 67 32 2.6 10.4 0.00 0.00 0.00 71 1017.1
20260507205416 67 60 2.6 10.4 0.00 0.00 0.00 72 1017.1
20260507205142 67 55 3.5 9.6 0.00 0.00 0.00 72 1017.0
20260507204404 67 62 3.5 8.7 0.00 0.00 0.00 72 1017.2
20260507203858 67 69 3.5 8.7 0.00 0.00 0.00 72 1017.0
20260507203629 67 64 3.5 9.6 0.00 0.00 0.00 73 1016.3
20260507202846 67 15 3.5 13.0 0.00 0.00 0.00 73 1016.5
20260507202340 68 74 3.5 13.0 0.00 0.00 0.00 73 1016.5
20260507201835 68 44 3.5 10.4 0.00 0.00 0.00 73 1016.5
20260507201559 68 71 4.3 12.2 0.00 0.00 0.00 73 1016.4
20260507200823 68 92 4.3 12.2 0.00 0.00 0.00 74 1016.6
20260507200317 67 80 3.5 12.2 0.00 0.00 0.00 74 1016.4
20260507195811 67 19 3.5 10.4 0.00 0.00 0.00 76 1016.7
20260507195306 66 44 3.5 10.4 0.00 0.00 0.00 76 1016.8
20260507194758 65 66 4.3 10.4 0.00 0.00 0.00 77 1016.6
20260507193746 64 49 4.3 11.3 0.00 0.00 0.00 77 1017.1
20260507193254 64 69 3.5 10.4 0.00 0.00 0.00 77 1016.9
20260507192734 64 62 2.6 8.7 0.00 0.00 0.00 77 1017.1
20260507192228 64 44 2.6 8.7 0.00 0.00 0.00 77 1017.2
20260507191722 64 40 2.6 8.7 0.00 0.00 0.00 78 1017.5
20260507190943 64 65 3.5 11.3 0.00 0.00 0.00 79 1017.4
20260507190204 64 64 4.3 11.3 0.00 0.00 0.00 78 1017.5
20260507185701 64 46 2.6 10.4 0.00 0.00 0.00 78 1017.5
20260507185153 63 75 3.5 9.6 0.00 0.00 0.00 80 1017.0
20260507184647 63 71 4.3 9.6 0.00 0.00 0.00 80 1016.7
20260507184411 62 75 4.3 9.6 0.00 0.00 0.00 79 1016.8
20260507183634 62 144 4.3 11.3 0.00 0.00 0.00 79 1016.9
20260507183404 62 58 4.3 11.3 0.00 0.00 0.00 79 1017.0
20260507182630 62 78 3.5 11.3 0.00 0.00 0.00 79 1017.2
20260507181630 62 17 2.6 7.8 0.00 0.00 0.00 79 1017.9
20260507181130 62 61 2.6 7.8 0.00 0.00 0.00 80 1017.8
20260507180631 62 96 2.6 8.7 0.00 0.00 0.00 80 1018.1
20260507180129 62 48 3.5 8.7 0.00 0.00 0.00 79 1018.2
20260507175630 62 50 2.6 8.7 0.00 0.00 0.00 79 1018.3
20260507175400 62 51 2.6 7.8 0.00 0.00 0.00 79 1018.4
20260507174630 62 71 2.6 7.8 0.00 0.00 0.00 79 1018.5
20260507174126 62 50 3.5 12.2 0.00 0.00 0.00 79 1018.7
20260507173626 62 67 3.5 12.2 0.00 0.00 0.00 78 1018.5
20260507173126 63 54 3.5 9.6 0.00 0.00 0.00 78 1018.6
20260507172856 63 38 3.5 9.6 0.00 0.00 0.00 78 1018.6
20260507172126 64 59 3.5 9.6 0.00 0.00 0.00 78 1018.4
20260507171126 63 82 3.5 11.3 0.00 0.00 0.00 78 1017.9
20260507170625 63 74 3.5 13.9 0.00 0.00 0.00 80 1018.2
20260507170125 62 86 3.5 13.9 0.00 0.00 0.00 80 1018.1
20260507165626 62 103 3.5 10.4 0.00 0.00 0.00 81 1018.2
20260507164854 61 67 3.5 11.3 0.00 0.00 0.00 81 1018.6
20260507164123 61 51 4.3 11.3 0.00 0.00 0.00 82 1018.5
20260507163624 61 88 4.3 11.3 0.00 0.00 0.00 82 1018.4
20260507163123 61 40 3.5 13.0 0.00 0.00 0.00 83 1018.3
20260507162621 60 40 2.6 13.0 0.00 0.00 0.00 83 1018.4
20260507162352 60 74 2.6 9.6 0.00 0.00 0.00 83 1018.6
20260507161622 60 41 3.5 9.6 0.00 0.00 0.00 84 1018.5
20260507161120 60 46 3.5 9.6 0.00 0.00 0.00 83 1018.3
20260507160620 60 28 3.5 11.3 0.00 0.00 0.00 83 1017.9
20260507160119 60 89 4.3 13.0 0.00 0.00 0.00 83 1018.2
20260507155617 60 59 5.2 13.0 0.00 0.00 0.00 83 1018.4
20260507155118 60 56 3.5 12.2 0.00 0.00 0.00 84 1018.4
20260507154617 60 55 3.5 9.6 0.00 0.00 0.00 84 1018.1
20260507154119 60 61 3.5 9.6 0.00 0.00 0.00 84 1018.2
20260507153611 59 60 3.5 11.3 0.00 0.00 0.00 85 1017.9
20260507153111 59 93 4.3 12.2 0.00 0.00 0.00 85 1017.8
20260507152612 59 24 4.3 12.2 0.00 0.00 0.00 84 1017.6
20260507152112 59 74 3.5 9.6 0.00 0.00 0.00 85 1017.7
20260507151611 59 33 4.3 9.6 0.00 0.00 0.00 85 1017.7
20260507151111 59 49 4.3 17.4 0.00 0.00 0.00 85 1017.7
20260507150611 59 40 4.3 17.4 0.00 0.00 0.00 84 1017.7
20260507150111 59 104 4.3 11.3 0.00 0.00 0.00 85 1017.5
20260507145612 59 80 4.3 11.3 0.00 0.00 0.00 85 1017.6
20260507145111 59 44 4.3 12.2 0.00 0.00 0.00 85 1017.8
20260507144611 59 71 3.5 12.2 0.00 0.00 0.00 85 1017.9
20260507144111 59 74 3.5 9.6 0.00 0.00 0.00 86 1017.6
20260507143612 59 76 4.3 14.8 0.00 0.00 0.00 86 1017.5
20260507143343 59 34 4.3 14.8 0.00 0.00 0.00 86 1017.6
20260507142611 59 5 4.3 12.2 0.00 0.00 0.00 86 1017.5
20260507142110 59 155 4.3 14.8 0.00 0.00 0.00 87 1017.4
20260507141605 59 48 5.2 14.8 0.00 0.00 0.00 87 1017.3
20260507141059 59 74 4.3 13.0 0.00 0.00 0.00 87 1017.4
20260507140553 59 41 3.5 13.9 0.00 0.00 0.00 87 1017.6
20260507140047 59 95 4.3 15.6 0.00 0.00 0.00 87 1017.7
20260507135540 59 93 5.2 15.6 0.00 0.00 0.00 87 1017.6
20260507135035 59 275 4.3 12.2 0.00 0.00 0.00 87 1017.5
20260507134801 59 5 4.3 13.0 0.00 0.00 0.00 87 1017.6
20260507134022 59 80 3.5 13.9 0.00 0.00 0.00 87 1017.6
20260507133747 59 88 3.5 13.9 0.00 0.00 0.00 87 1017.7
20260507133011 59 55 3.5 8.7 0.00 0.00 0.00 87 1017.5
20260507132505 59 74 3.5 11.3 0.00 0.00 0.00 86 1017.6
20260507131959 60 49 4.3 11.3 0.00 0.00 0.00 86 1017.7
20260507131453 60 40 3.5 11.3 0.00 0.00 0.00 86 1017.9
20260507130948 60 82 3.5 11.3 0.00 0.00 0.00 85 1018.2
20260507130441 60 27 4.3 12.2 0.00 0.00 0.00 85 1017.8
20260507125935 60 19 4.3 12.2 0.00 0.00 0.00 85 1017.4
20260507125433 60 51 4.3 13.9 0.00 0.00 0.00 84 1017.3
20260507124933 60 76 4.3 13.9 0.00 0.00 0.00 84 1017.5
20260507124433 61 117 4.3 13.9 0.00 0.00 0.00 83 1017.2
20260507124204 61 57 3.5 13.0 0.00 0.00 0.00 83 1017.4
20260507123433 61 36 2.6 9.6 0.00 0.00 0.00 83 1017.2
20260507122933 61 35 2.6 9.6 0.00 0.00 0.00 83 1017.3
20260507122707 61 47 3.5 10.4 0.00 0.00 0.00 83 1017.2
20260507121933 61 9 3.5 10.4 0.00 0.00 0.00 82 1017.1
20260507121431 61 38 1.7 7.8 0.00 0.00 0.00 82 1017.1
20260507121202 61 84 1.7 10.4 0.00 0.00 0.00 82 1016.8
20260507115931 61 69 3.5 10.4 0.00 0.00 0.00 82 1016.5
20260507115431 62 141 4.3 12.2 0.00 0.00 0.00 82 1016.3
20260507114929 62 57 4.3 14.8 0.00 0.00 0.00 82 1016.1
20260507113929 62 46 4.3 12.2 0.00 0.00 0.00 82 1015.9
20260507113429 62 60 3.5 12.2 0.00 0.00 0.00 82 1016.0
20260507112925 62 5 2.6 8.7 0.00 0.00 0.00 82 1016.1
20260507112425 62 62 2.6 11.3 0.00 0.00 0.00 82 1016.0
20260507111925 62 62 2.6 11.3 0.00 0.00 0.00 82 1016.0
20260507111425 62 67 2.6 9.6 0.00 0.00 0.00 82 1015.9
20260507110925 62 68 3.5 10.4 0.00 0.00 0.00 82 1015.8
20260507110424 62 67 3.5 11.3 0.00 0.00 0.00 82 1015.8
20260507105925 62 71 3.5 11.3 0.00 0.00 0.00 82 1015.8
20260507105425 62 99 3.5 11.3 0.00 0.00 0.00 82 1015.6
20260507104925 62 46 2.6 8.7 0.00 0.00 0.00 82 1015.6
20260507104425 62 51 2.6 10.4 0.00 0.00 0.00 82 1015.7
20260507103925 62 56 2.6 10.4 0.00 0.00 0.00 81 1015.7
20260507103656 62 78 2.6 9.6 0.00 0.00 0.00 82 1015.8
20260507102925 62 78 3.5 9.6 0.00 0.00 0.00 81 1015.9
20260507102425 62 36 2.6 9.6 0.00 0.00 0.00 81 1016.0
20260507101924 62 26 2.6 9.6 0.00 0.00 0.00 82 1015.9
20260507101424 62 64 1.7 8.7 0.00 0.00 0.00 82 1015.9
20260507100925 62 95 1.7 7.0 0.00 0.00 0.00 82 1015.8
20260507100424 62 38 1.7 8.7 0.00 0.00 0.00 82 1015.7
20260507095918 62 39 2.6 8.7 0.00 0.00 0.00 82 1015.7
20260507095412 62 30 2.6 8.7 0.00 0.00 0.00 82 1015.8
20260507094912 62 74 2.6 12.2 0.00 0.00 0.00 82 1015.9
20260507094410 62 13 2.6 12.2 0.00 0.00 0.00 82 1015.6
20260507093913 62 24 2.6 8.7 0.00 0.00 0.00 82 1015.7
20260507093410 62 85 1.7 7.0 0.00 0.00 0.00 82 1015.7
20260507092911 62 64 1.7 7.0 0.00 0.00 0.00 82 1015.8
20260507092411 62 82 1.7 9.6 0.00 0.00 0.00 82 1015.8
20260507091910 62 80 1.7 9.6 0.00 0.00 0.00 82 1015.7
20260507091410 62 31 1.7 7.0 0.00 0.00 0.00 82 1015.6
20260507090911 62 68 2.6 10.4 0.00 0.00 0.00 82 1015.7
20260507090409 62 26 2.6 10.4 0.00 0.00 0.00 82 1015.8
20260507085909 62 76 2.6 7.8 0.00 0.00 0.00 82 1015.7
20260507085409 62 28 2.6 7.8 0.00 0.00 0.00 82 1015.6
20260507084911 62 49 2.6 8.7 0.00 0.00 0.00 82 1015.6
20260507084639 62 34 2.6 8.7 0.00 0.00 0.00 82 1015.8
20260507083907 63 20 2.6 7.8 0.00 0.00 0.00 82 1015.7
20260507083404 63 68 1.7 7.8 0.00 0.00 0.00 82 1015.8
20260507082903 63 79 2.6 9.6 0.00 0.00 0.00 82 1015.7
20260507082357 63 80 2.6 9.6 0.00 0.00 0.00 82 1015.7
20260507081852 63 84 2.6 9.6 0.00 0.00 0.00 82 1015.7
20260507081346 63 35 1.7 7.8 0.00 0.00 0.00 82 1015.9
20260507080840 63 16 0.9 6.1 0.00 0.00 0.00 82 1016.1
20260507080334 63 58 1.7 7.0 0.00 0.00 0.00 82 1015.9
20260507075828 63 53 1.7 9.6 0.00 0.00 0.00 82 1015.9
20260507075322 63 41 2.6 9.6 0.00 0.00 0.00 82 1015.9
20260507074815 63 45 2.6 9.6 0.00 0.00 0.00 82 1015.7
20260507074310 63 128 2.6 9.6 0.00 0.00 0.00 82 1015.8
20260507073808 63 63 2.6 9.6 0.00 0.00 0.00 82 1015.9
20260507073308 63 41 1.7 9.6 0.00 0.00 0.00 82 1016.1
20260507072307 63 48 2.6 9.6 0.00 0.00 0.00 82 1016.2
20260507071806 63 22 2.6 8.7 0.00 0.00 0.00 82 1016.1
20260507071304 63 49 2.6 7.8 0.00 0.00 0.00 82 1016.1
20260507070807 63 56 2.6 7.8 0.00 0.00 0.00 82 1016.2
20260507070307 63 78 2.6 7.0 0.00 0.00 0.00 82 1016.2
20260507070033 63 61 2.6 8.7 0.00 0.00 0.00 82 1016.1
20260507065301 63 60 1.7 7.0 0.00 0.00 0.00 82 1016.2
20260507064759 63 66 1.7 7.0 0.00 0.00 0.00 82 1016.1
20260507064300 63 62 1.7 7.0 0.00 0.00 0.00 82 1016.0
20260507063758 63 65 1.7 3.5 0.00 0.00 0.00 82 1016.0
20260507063256 63 66 1.7 3.5 0.00 0.00 0.00 82 1016.1
20260507063026 63 66 1.7 7.0 0.00 0.00 0.00 82 1016.1
20260507062255 63 77 2.6 7.8 0.00 0.00 0.00 82 1016.0
20260507061754 63 94 2.6 7.8 0.00 0.00 0.00 82 1015.9
20260507061254 63 63 1.7 5.2 0.00 0.00 0.00 82 1015.9
20260507060254 63 45 2.6 11.3 0.00 0.00 0.00 82 1015.5
20260507055752 63 74 2.6 7.8 0.00 0.00 0.00 82 1015.4
20260507055250 63 78 2.6 9.6 0.00 0.00 0.00 82 1015.4
20260507054748 63 25 3.5 9.6 0.00 0.00 0.00 82 1015.4
20260507054246 63 23 2.6 8.7 0.00 0.00 0.00 82 1015.2
20260507053746 63 57 2.6 7.8 0.00 0.00 0.00 82 1015.2
20260507053246 63 43 2.6 10.4 0.00 0.00 0.00 82 1015.0
20260507052746 63 0 1.7 10.4 0.00 0.00 0.00 82 1014.9
20260507052246 63 0 2.6 10.4 0.00 0.00 0.00 83 1015.0
20260507051744 63 111 2.6 10.4 0.00 0.00 0.00 83 1014.8
20260507051244 63 47 3.5 13.0 0.00 0.00 0.00 83 1014.7
20260507050744 64 61 3.5 13.0 0.00 0.00 0.00 83 1014.6
20260507050243 64 50 3.5 11.3 0.00 0.00 0.00 83 1014.8
20260507050014 64 59 3.5 11.3 0.00 0.00 0.00 83 1014.7
20260507045244 64 50 2.6 7.8 0.00 0.00 0.00 83 1014.9
20260507045014 64 25 2.6 7.8 0.00 0.00 0.00 83 1014.8
20260507044514 64 57 2.6 9.6 0.00 0.00 0.00 83 1014.6
20260507043743 64 78 3.5 9.6 0.00 0.00 0.00 83 1014.7
20260507043237 64 61 3.5 12.2 0.00 0.00 0.00 83 1015.0
20260507042731 64 76 3.5 12.2 0.00 0.00 0.00 83 1015.0
20260507042225 64 55 3.5 11.3 0.00 0.00 0.00 83 1015.0
20260507041719 64 72 3.5 13.0 0.00 0.00 0.00 83 1014.9
20260507041213 64 44 2.6 13.0 0.00 0.00 0.00 83 1014.8
20260507040707 64 50 2.6 7.8 0.00 0.00 0.00 83 1014.6
20260507040202 64 46 2.6 7.8 0.00 0.00 0.00 83 1014.5
20260507035655 64 336 1.7 7.8 0.00 0.00 0.00 83 1014.3
20260507035149 64 46 2.6 9.6 0.00 0.00 0.00 83 1014.3
20260507034642 64 11 1.7 9.6 0.00 0.00 0.00 82 1014.2
20260507034137 64 355 0.9 5.2 0.00 0.00 0.00 82 1014.3
20260507033631 64 53 0.9 7.8 0.00 0.00 0.00 82 1014.1
20260507033125 64 57 0.9 7.8 0.00 0.00 0.00 82 1014.1
20260507032619 64 32 1.7 8.7 0.00 0.00 0.00 82 1014.0
20260507031607 64 41 2.6 12.2 0.00 0.00 0.00 82 1013.9
20260507031101 64 343 1.7 12.2 0.00 0.00 0.00 82 1014.0
20260507030555 64 51 1.7 9.6 0.00 0.00 0.00 82 1014.0
20260507030048 64 79 1.7 9.6 0.00 0.00 0.00 82 1014.0
20260507025543 64 303 1.7 7.8 0.00 0.00 0.00 82 1014.1
20260507025036 64 33 2.6 9.6 0.00 0.00 0.00 82 1014.0
20260507024530 64 44 1.7 9.6 0.00 0.00 0.00 81 1014.0
20260507024025 64 283 1.7 9.6 0.00 0.00 0.00 81 1013.9
20260507023751 65 44 1.7 9.6 0.00 0.00 0.00 81 1014.0
20260507023244 65 30 1.7 11.3 0.00 0.00 0.00 81 1013.9
20260507022738 65 26 1.7 11.3 0.00 0.00 0.00 81 1013.8
20260507022001 65 32 1.7 8.7 0.00 0.00 0.00 81 1013.9
20260507021455 65 355 2.6 11.3 0.00 0.00 0.00 81 1013.8
20260507020949 65 69 2.6 11.3 0.00 0.00 0.00 81 1013.8
20260507020713 65 15 1.7 7.0 0.00 0.00 0.00 80 1013.8
20260507015937 65 29 1.7 7.8 0.00 0.00 0.00 80 1013.6
20260507015431 65 311 1.7 9.6 0.00 0.00 0.00 80 1013.2
20260507014925 65 355 2.6 9.6 0.00 0.00 0.00 80 1013.2
20260507014419 65 51 2.6 8.7 0.00 0.00 0.00 80 1012.9
20260507013407 66 52 3.5 13.9 0.00 0.00 0.00 80 1013.0
20260507013132 66 17 3.5 13.9 0.00 0.00 0.00 79 1012.9
20260507012626 66 44 2.6 9.6 0.00 0.00 0.00 79 1013.0
20260507011851 67 28 2.6 10.4 0.00 0.00 0.00 79 1013.1
20260507011351 67 27 2.6 10.4 0.00 0.00 0.00 79 1013.2